Location: Pasarilla del Rebollar
(40.6790°N, 5.0062°W)
Time: 11:05:12
(UTC+00:00)

IDEFIX/ARIANE 42P - Pass Details

Date: 22 April 2026
Orbit: 780 x 797 km, 98.6° (Epoch: 15 May)

Event Time Altitude Azimuth Distance (km) Brightness Sun altitude
Rises 03:31:33 0° 355° (N) 3,278 6.2 -20.9°
Reaches altitude 10° 03:34:50 10° 333° (NNW) 2,348 5.1 -20.4°
Maximum altitude 03:37:40 15° 299° (WNW) 2,016 4.4 -20.0°
Enters shadow 03:38:06 15° 293° (WNW) 2,024 4.4 -19.9°
